Wind_Speed
12 12 12 12 12 12 12 12 12 11 11 10 10 10 10 11 11 11 10 11 11 11 11 12 12 12 13 13 14 14 14 14 14 14 15 16 16 16 16 16 17 17 17
12 12 12 12 12 12 13 12 11 11 11 11 11 11 11 11 11 12 11 11 12 11 11 12 12 13 13 14 14 14 14 15 14 14 15 16 16 16 17 17 17 17 17
13 13 13 13 13 12 12 12 12 12 12 12 12 12 12 12 12 12 12 12 12 12 12 13 13 13 14 14 14 15 14 15 15 15 15 16 16 17 17 17 17 17 17
15 14 14 14 13 12 12 12 12 13 12 12 12 11 12 12 12 12 12 12 12 13 13 14 14 14 14 14 15 15 15 15 15 16 16 16 16 16 16 17 17 17 17
16 16 15 15 14 14 13 13 13 13 13 13 13 12 12 12 12 12 13 12 13 13 13 14 14 15 15 15 15 15 15 15 16 16 16 16 16 17 17 17 17 17 17
17 17 16 15 15 15 14 15 14 13 14 14 14 14 14 13 13 13 13 13 14 14 14 15 15 15 15 15 16 16 16 16 16 16 16 16 16 17 17 17 17 17 18
19 18 17 16 16 15 15 14 14 14 15 15 15 15 15 15 14 14 14 14 14 15 15 15 15 15 15 16 16 17 16 16 16 16 16 17 17 17 17 17 17 17 17
19 18 17 16 16 15 15 15 15 15 15 15 15 15 15 15 15 15 15 15 15 15 16 16 16 16 16 16 17 17 17 17 17 17 17 17 17 17 17 17 17 17 16
17 17 17 16 16 16 16 16 16 16 16 16 15 15 15 15 16 16 16 16 16 16 17 17 17 17 17 17 17 18 18 18 18 18 17 17 17 17 17 17 17 17 17
18 18 17 18 17 17 17 16 16 16 16 15 15 15 16 16 17 17 17 18 18 17 18 18 18 18 18 18 18 18 18 19 18 18 17 17 17 17 17 17 17 16 17
19 18 18 18 18 17 16 16 16 16 16 16 15 16 16 17 17 18 18 18 18 19 19 18 19 19 19 20 20 19 19 19 19 18 18 17 17 17 17 17 17 17 17
19 18 18 18 18 17 17 17 16 16 16 16 16 17 17 18 18 18 18 19 19 19 19 19 19 20 20 20 21 20 20 19 19 19 18 18 18 18 18 18 18 18 17
18 18 18 18 18 18 18 18 17 16 16 17 17 18 18 19 19 19 19 19 19 19 20 20 20 20 20 20 20 20 20 20 20 20 19 19 19 19 19 19 18 19 19
18 18 18 18 19 19 19 19 18 18 18 19 19 19 20 20 21 20 20 19 19 20 20 20 21 21 21 20 20 20 21 21 21 20 19 20 20 20 20 20 19 19 19
19 19 19 19 19 19 19 19 19 19 19 19 20 20 21 21 21 21 20 20 20 20 21 21 21 21 21 21 21 21 21 21 21 21 20 20 20 20 20 20 20 20 20
20 20 20 20 20 20 20 20 20 20 20 20 20 21 21 21 21 21 21 21 21 21 21 21 21 22 22 22 21 21 21 21 21 21 21 21 21 20 20 20 20 20 20
21 22 22 21 21 21 22 22 22 21 21 21 21 21 21 21 21 22 22 22 22 21 22 22 22 22 22 22 22 22 22 22 22 22 22 21 21 21 21 21 21 21 21
22 22 22 23 23 23 24 24 24 23 23 23 23 23 23 22 22 22 22 23 23 23 23 23 23 23 23 23 23 23 23 23 22 23 22 22 22 23 23 23 23 23 22
23 23 24 23 24 24 25 25 25 25 24 24 24 24 24 23 23 22 22 23 23 23 24 24 24 24 23 24 23 24 23 23 23 22 22 22 23 23 24 24 24 23 23
24 24 25 25 25 25 25 25 26 25 24 24 24 24 24 24 23 23 23 23 23 24 24 25 25 25 25 25 25 25 24 24 24 24 24 23 23 24 24 25 25 24 24
25 25 25 25 26 26 26 26 26 26 26 26 26 26 25 25 25 25 25 25 24 25 25 25 25 26 26 26 26 26 25 25 25 25 25 25 25 25 25 25 25 25 26
26 26 26 26 26 27 27 27 27 27 27 27 27 27 27 26 26 27 27 26 26 26 26 25 25 26 26 26 26 26 26 26 26 26 26 26 26 26 26 26 26 27 28
28 28 28 28 28 28 27 27 28 28 29 29 29 28 28 28 28 28 29 29 28 28 27 27 27 27 27 27 28 27 27 27 28 28 28 28 27 27 27 27 27 28 28
29 29 29 28 28 28 29 29 29 29 30 30 29 29 29 29 29 29 30 30 30 29 29 29 28 28 28 29 29 29 29 28 29 29 30 30 29 28 28 28 28 28 28
29 28 28 28 28 29 30 30 29 29 29 29 29 29 30 30 30 30 30 30 30 30 30 30 30 30 30 30 30 30 30 30 30 30 31 31 30 30 29 29 29 29 29
29 28 28 28 28 29 30 30 30 30 29 29 29 29 29 30 30 30 31 31 31 31 32 32 32 31 31 31 31 32 32 32 32 32 32 32 31 31 30 30 30 30 30
Wind_Direction
264 266 265 267 271 274 276 275 273 271 272 272 271 272 274 277 280 280 278 278 278 277 277 278 277 278 282 285 287 288 289 287 287 280 277 272 271 273 273 273 270 267 265
261 265 267 268 268 270 272 272 271 270 269 269 269 272 273 275 277 279 278 277 276 276 279 281 281 283 284 286 286 286 287 287 285 283 281 277 275 274 274 272 269 266 264
260 262 266 268 268 269 268 270 273 269 270 267 267 268 271 274 274 277 277 277 276 276 278 280 282 287 288 287 287 286 287 288 288 287 285 282 278 276 276 273 270 267 264
259 261 265 264 265 267 267 270 271 270 270 269 268 270 271 272 273 276 278 278 278 276 276 279 283 285 287 288 288 288 288 288 288 290 290 288 284 281 276 274 273 270 266
258 261 263 264 264 265 267 269 270 269 271 271 270 271 271 272 273 275 275 277 278 276 277 281 284 284 286 287 288 289 289 289 289 289 289 288 284 282 280 277 276 273 269
259 260 262 264 265 267 268 268 267 270 272 273 271 268 268 269 272 274 275 276 276 276 278 282 283 283 285 287 288 288 288 289 290 289 287 284 282 282 280 277 276 274 271
261 261 263 263 265 266 268 268 271 273 274 272 269 267 266 267 271 274 275 277 278 276 277 280 280 280 282 285 288 287 286 288 289 288 287 284 282 281 279 277 276 274 273
263 262 260 261 262 265 268 272 273 274 274 272 272 270 267 267 270 272 273 276 277 277 275 277 277 277 279 284 288 288 287 288 289 289 287 285 282 281 279 277 275 273 273
263 258 257 260 264 267 269 272 273 273 272 270 271 272 270 270 271 272 272 273 275 275 277 276 275 275 278 282 285 286 288 288 289 290 289 287 285 281 278 277 275 273 272
264 262 261 263 266 267 269 271 272 270 272 270 271 271 272 272 274 276 274 273 274 276 277 279 277 277 278 281 283 285 287 289 289 290 289 288 285 283 280 277 276 275 273
262 261 262 264 267 267 268 271 273 269 269 270 271 272 274 275 274 276 275 275 276 277 279 280 280 279 279 279 281 284 286 286 286 286 287 287 285 282 280 278 277 275 273
261 260 261 263 267 269 270 271 273 272 270 267 270 272 273 277 277 277 278 278 278 279 280 280 282 282 282 282 282 283 284 285 284 282 282 283 283 282 280 278 276 275 273
260 259 261 263 265 267 268 270 271 272 271 270 271 273 274 277 280 279 279 279 280 280 281 281 281 281 282 283 282 282 282 282 283 281 280 281 281 280 279 278 277 275 273
260 261 263 265 265 265 268 269 269 270 271 270 271 273 274 277 277 277 279 280 280 280 281 281 280 281 282 282 282 283 283 281 281 280 279 279 280 279 278 277 276 275 273
263 264 265 266 266 266 268 268 269 270 270 271 271 273 275 277 277 276 278 279 279 280 281 281 280 281 281 281 281 282 282 282 280 278 278 278 279 278 277 275 275 274 273
263 264 266 267 267 267 269 270 269 269 270 270 271 272 273 275 276 276 276 278 279 279 280 281 279 279 280 280 281 281 283 284 281 279 278 277 276 276 275 274 274 274 273
264 265 266 266 267 266 268 270 271 270 271 272 272 272 272 274 275 275 275 277 277 279 280 279 279 278 279 278 279 282 283 283 282 280 279 277 275 274 275 273 273 273 272
266 266 266 265 267 268 270 271 272 272 273 273 272 272 271 272 272 274 275 275 276 278 280 279 278 277 276 277 279 281 283 283 281 280 278 278 276 274 273 271 271 272 271
266 266 267 266 267 269 270 272 273 273 273 272 272 272 272 272 272 272 275 276 276 278 279 278 277 277 277 276 277 279 283 284 284 283 280 279 277 274 272 271 271 270 270
267 268 268 267 267 269 270 272 273 273 273 272 272 272 271 271 272 272 274 276 278 277 278 277 275 276 277 277 277 279 280 282 282 282 281 280 278 275 273 272 272 270 269
267 268 267 267 268 270 271 272 273 273 272 272 273 272 271 272 271 271 272 274 276 277 277 277 275 274 275 276 278 279 280 281 281 282 282 281 278 276 274 273 271 270 268
268 268 267 268 270 271 271 272 273 273 273 272 273 272 271 271 270 271 272 273 274 276 276 276 276 274 274 276 277 279 279 280 281 281 281 281 278 277 276 274 272 270 269
268 267 267 269 270 271 272 275 275 273 272 273 273 273 272 270 270 271 271 272 274 275 276 276 276 276 275 275 277 279 279 280 282 282 281 280 278 276 276 275 272 270 269
268 268 268 268 271 273 274 274 274 272 271 270 271 273 272 272 271 271 272 272 273 274 275 275 277 276 275 275 276 278 280 280 281 281 280 279 278 276 276 276 274 271 270
269 270 269 270 272 274 274 274 272 272 272 270 271 273 272 272 271 271 273 273 273 273 274 275 275 275 275 274 274 276 277 279 280 280 280 279 278 276 276 276 275 273 270
270 271 272 272 272 274 275 274 272 272 272 271 271 272 274 274 274 273 272 273 274 274 274 274 275 275 274 274 275 275 276 277 278 278 279 279 278 277 276 275 274 272 269
Height
5829 5829 5829 5829 5829 5829 5829 5829 5829 5829 5828 5828 5828 5828 5827 5827 5827 5826 5826 5825 5825 5824 5824 5824 5823 5823 5822 5822 5821 5820 5819 5818 5818 5817 5817 5816 5816 5816 5816 5816 5816 5816 5817
5826 5826 5826 5826 5826 5826 5826 5826 5825 5825 5825 5825 5825 5825 5825 5824 5824 5823 5823 5822 5822 5821 5821 5821 5820 5820 5819 5818 5817 5817 5816 5815 5814 5814 5813 5812 5813 5811 5812 5812 5812 5812 5812
5822 5822 5823 5823 5823 5823 5823 5823 5822 5822 5822 5822 5821 5821 5821 5821 5821 5821 5820 5819 5819 5818 5818 5818 5817 5816 5816 5815 5814 5813 5812 5811 5811 5810 5809 5808 5808 5807 5807 5807 5807 5807 5807
5819 5819 5819 5819 5819 5819 5819 5819 5819 5819 5818 5818 5818 5818 5818 5818 5818 5817 5817 5817 5816 5815 5815 5814 5814 5813 5812 5811 5810 5809 5809 5808 5807 5806 5804 5804 5803 5803 5803 5803 5802 5802 5802
5815 5815 5815 5816 5816 5816 5816 5816 5816 5815 5815 5815 5815 5815 5815 5815 5814 5814 5814 5813 5813 5812 5811 5811 5810 5809 5808 5808 5807 5806 5805 5804 5803 5802 5800 5799 5799 5798 5798 5798 5798 5798 5798
5810 5811 5811 5811 5812 5812 5812 5812 5812 5812 5811 5811 5811 5811 5811 5811 5811 5810 5810 5809 5809 5808 5808 5807 5806 5805 5805 5804 5803 5802 5801 5800 5798 5797 5796 5795 5794 5794 5793 5793 5793 5793 5793
5806 5806 5807 5807 5807 5807 5808 5808 5808 5808 5807 5807 5807 5807 5807 5807 5807 5806 5806 5805 5805 5805 5804 5803 5802 5802 5801 5800 5799 5798 5797 5795 5794 5793 5792 5791 5790 5789 5789 5789 5788 5788 5787
5801 5802 5802 5802 5803 5803 5803 5803 5803 5803 5803 5803 5803 5803 5803 5803 5803 5802 5802 5801 5801 5800 5800 5799 5798 5797 5797 5796 5795 5794 5792 5791 5790 5789 5787 5786 5785 5784 5784 5784 5783 5782 5782
5796 5796 5797 5798 5798 5798 5798 5798 5798 5798 5799 5799 5799 5799 5798 5798 5798 5798 5797 5797 5796 5796 5795 5794 5793 5793 5792 5791 5790 5789 5788 5787 5785 5784 5783 5781 5780 5779 5779 5778 5777 5777 5777
5790 5791 5792 5792 5793 5793 5794 5794 5794 5794 5794 5794 5794 5794 5794 5793 5793 5793 5792 5792 5791 5791 5790 5789 5789 5788 5787 5786 5785 5784 5783 5782 5780 5779 5778 5777 5776 5774 5774 5773 5772 5772 5772
5786 5786 5787 5787 5788 5788 5788 5789 5789 5789 5789 5789 5789 5789 5789 5789 5788 5788 5787 5787 5786 5785 5785 5784 5784 5783 5782 5781 5780 5779 5778 5776 5775 5774 5773 5772 5771 5770 5769 5768 5768 5767 5767
5780 5781 5782 5783 5783 5783 5783 5783 5784 5784 5784 5784 5784 5784 5783 5783 5783 5782 5782 5781 5780 5780 5779 5779 5778 5777 5776 5775 5774 5773 5772 5771 5770 5769 5768 5767 5766 5765 5764 5764 5763 5763 5763
5775 5776 5777 5777 5778 5778 5778 5778 5778 5778 5778 5778 5778 5778 5778 5778 5777 5777 5776 5775 5775 5774 5773 5773 5772 5771 5770 5770 5768 5767 5767 5766 5765 5764 5763 5762 5761 5760 5759 5759 5758 5758 5758
5770 5771 5771 5772 5772 5772 5772 5772 5773 5773 5773 5773 5773 5772 5772 5771 5771 5770 5770 5769 5769 5768 5768 5767 5766 5765 5764 5763 5762 5762 5761 5760 5759 5758 5757 5756 5755 5754 5754 5753 5753 5753 5752
5765 5765 5766 5766 5766 5766 5766 5767 5767 5767 5767 5767 5767 5766 5766 5765 5764 5764 5763 5763 5762 5762 5761 5761 5760 5759 5758 5757 5756 5755 5755 5754 5753 5752 5751 5750 5749 5748 5748 5747 5747 5747 5747
5759 5760 5760 5760 5760 5760 5761 5761 5761 5760 5760 5760 5760 5760 5759 5759 5758 5758 5757 5757 5756 5756 5755 5754 5753 5753 5752 5751 5750 5749 5748 5747 5746 5745 5745 5744 5743 5742 5742 5741 5741 5741 5741
5753 5754 5754 5754 5754 5754 5754 5754 5754 5754 5753 5753 5753 5753 5753 5753 5752 5751 5751 5750 5750 5749 5749 5748 5747 5746 5746 5745 5744 5743 5742 5741 5740 5739 5738 5738 5737 5736 5736 5735 5735 5735 5735
5747 5747 5747 5747 5747 5747 5747 5747 5747 5747 5747 5746 5746 5746 5746 5746 5746 5745 5744 5744 5743 5743 5742 5741 5740 5740 5739 5738 5737 5737 5736 5734 5733 5732 5732 5731 5730 5730 5730 5729 5729 5729 5729
5740 5740 5740 5740 5740 5740 5740 5740 5740 5740 5739 5739 5739 5739 5739 5739 5738 5738 5738 5737 5737 5736 5735 5734 5733 5733 5732 5731 5731 5730 5729 5728 5727 5726 5725 5724 5724 5723 5723 5723 5723 5723 5722
5733 5733 5733 5733 5733 5733 5733 5733 5733 5733 5732 5732 5732 5732 5732 5731 5731 5731 5731 5730 5730 5729 5728 5727 5727 5726 5725 5724 5724 5723 5722 5721 5720 5719 5719 5718 5717 5716 5716 5716 5716 5716 5716
5725 5725 5725 5725 5725 5725 5725 5725 5725 5725 5725 5725 5724 5724 5724 5724 5724 5724 5724 5723 5723 5722 5721 5720 5719 5719 5718 5717 5716 5716 5715 5714 5713 5712 5712 5711 5710 5709 5708 5708 5708 5708 5708
5718 5717 5717 5718 5718 5718 5717 5717 5717 5717 5717 5716 5716 5716 5716 5716 5716 5716 5715 5715 5715 5714 5713 5713 5712 5711 5710 5710 5709 5708 5707 5706 5706 5705 5704 5703 5702 5701 5701 5701 5701 5700 5700
5709 5709 5709 5709 5710 5709 5709 5709 5709 5708 5708 5708 5708 5708 5707 5707 5707 5707 5707 5707 5707 5706 5706 5705 5704 5703 5702 5702 5701 5700 5699 5698 5698 5697 5696 5695 5694 5693 5693 5692 5692 5692 5691
5701 5701 5701 5701 5701 5701 5701 5700 5700 5699 5699 5699 5699 5699 5699 5698 5698 5698 5698 5698 5698 5697 5697 5696 5696 5695 5694 5693 5693 5692 5691 5690 5689 5688 5687 5686 5686 5685 5684 5684 5684 5683 5683
5692 5692 5692 5692 5692 5692 5692 5691 5691 5691 5691 5691 5690 5690 5690 5690 5689 5689 5689 5688 5688 5688 5688 5687 5686 5686 5685 5684 5683 5683 5682 5681 5680 5679 5678 5677 5677 5676 5676 5675 5675 5674 5674
5683 5683 5683 5683 5683 5683 5682 5682 5682 5682 5682 5682 5682 5681 5681 5681 5680 5679 5679 5678 5678 5678 5677 5676 5676 5675 5675 5674 5673 5673 5672 5671 5671 5670 5669 5668 5668 5667 5666 5666 5666 5665 5665